[[{"header":{"parameterUnit":"m.s-1","parameterCategory":2,"la1":30.2991,"la2":30.254,"lo1":-89.0895,"lo2":-89.0444,"dy":0.0017,"dx":0.0017,"nx":28,"ny":28,"refTime":"2025-12-14T03:00:00:Z","depth":"0","parameterNumber":2,"parameterNumberName":"U-component_of_CURRENTS"},"data":[0,0,0,0,0,0,0,0,0,0,0,0,0,0,0,0,0,0,0,0,0,0,0,0,0,0,0,0,0,0,0,0,0,0,0,0,0,0,0,0,0,0,0,0,0,0,0,0,0,0,0,0,0,0,0,0,0,0,0.2812,0.2812,0,0.2749,0.2748,0.2746,0.2701,0.2701,0.2701,0.2701,0.2537,0.2532,0.2528,0,0,0,0,0,0,0,0,0,0,0,0,0,0.2792,0.2793,0.2812,0.2812,0.2811,0.2749,0.2748,0.2746,0.2701,0.2701,0.2701,0.2702,0.2538,0.2533,0.2528,0,0,0,0,0,0,0,0,0,0,0,0,0,0.2767,0.2793,0.2812,0.2785,0.2783,0.2749,0.2747,0.2746,0.2701,0.2701,0.2701,0.2702,0.254,0.2533,0.2527,0.2481,0,0,0.2506,0.2503,0,0,0,0,0,0,0,0,0.2769,0.2767,0.279,0.2787,0.2784,0.2738,0.268,0.2654,0.2701,0.2726,0.2701,0.2702,0.2598,0.2587,0.2568,0.2474,0.2467,0.2506,0.2501,0.2499,0.2497,0,0,0,0,0,0,0,0.2771,0.2769,0.2781,0.2789,0.2786,0.2742,0.2739,0.2675,0.2656,0.2724,0.2722,0.2724,0.2595,0.2575,0.2563,0.2464,0.2506,0.25,0.2496,0.2493,0.2367,0.2368,0,0,0,0,0,0,0.2795,0.2771,0.2783,0.278,0.2783,0.2743,0.2739,0.2748,0.2659,0.2648,0.2724,0.2722,0.2586,0.2571,0.2557,0.254,0.2499,0.2492,0.2488,0.2367,0.2368,0.2368,0,0,0,0,0,0,0.2795,0.2797,0.2786,0.2778,0.2774,0.2745,0.2754,0.2747,0.2729,0.266,0.2646,0.2715,0.2586,0.2567,0.2505,0.2532,0.2489,0.2483,0.2366,0.2367,0.2368,0.2479,0,0,0,0,0,0,0.2794,0.2797,0.2804,0.278,0.2776,0.2769,0.2754,0.2746,0.2733,0.273,0.2648,0.2633,0.2584,0.2516,0.2499,0.2522,0.2478,0.2365,0.2366,0.2368,0.2474,0.2484,0.2492,0,0,0,0,0,0.2794,0.2801,0.2805,0.2806,0.279,0.2769,0.2762,0.2737,0.2732,0.2722,0.2672,0.2635,0.2513,0.251,0.249,0.2512,0.2364,0.2366,0.2368,0.247,0.2482,0.2491,0,0,0,0,0,0,0.2776,0.2797,0.2801,0.2809,0.2796,0.2764,0.2754,0.2741,0.2694,0.2692,0.2625,0.2606,0.2564,0.2518,0.2517,0.2481,0.244,0.2437,0.2525,0.2535,0.2543,0.2569,0.2472,0,0,0,0,0,0.2784,0.2803,0.2803,0.2804,0.2806,0.2783,0.2771,0.2759,0.2722,0.2702,0.2647,0.2596,0.2554,0.2529,0.2472,0.2442,0.2506,0.2449,0.2458,0.2466,0.2473,0.2646,0.2674,0.2374,0.2374,0.2374,0,0,0.2773,0.2789,0.2795,0.2803,0.2792,0.279,0.2774,0.2764,0.2757,0.2689,0.2649,0.2609,0.2548,0.2521,0.2501,0.2488,0.2582,0.2468,0.2475,0.2478,0.2651,0.2681,0.2708,0.2375,0.2375,0.2374,0,0,0.2766,0.2782,0.28,0.2799,0.2804,0.2792,0.2795,0.2772,0.2759,0.2717,0.2685,0.2678,0.2573,0.2577,0.2556,0.2579,0.2614,0.2547,0.2619,0.2788,0.2816,0.2841,0.2967,0.3002,0.2564,0.2564,0.2564,0,0.2748,0.2784,0.2793,0.2809,0.2811,0.2799,0.2806,0.2788,0.2743,0.275,0.2712,0.2661,0.2614,0.2636,0.2642,0.2604,0.2689,0.2588,0.2808,0.2834,0.2858,0.298,0.3018,0.2569,0.2569,0.2568,0.2568,0,0.2761,0.2787,0.2793,0.2821,0.2816,0.2819,0.2813,0.2808,0.279,0.2784,0.2787,0.2746,0.273,0.2723,0.2676,0.281,0.2811,0.2799,0.2797,0.2897,0.3016,0.3054,0.2577,0.2575,0.2574,0.2572,0,0,0.2726,0.2794,0.2793,0.2827,0.283,0.2834,0.2833,0.2848,0.2876,0.2846,0.2892,0.285,0.2858,0.2837,0.2816,0.295,0.3189,0.2945,0.2952,0.3096,0.3555,0.3514,0.355,0.3236,0.3243,0.3249,0.3575,0,0.2733,0.2784,0.2805,0.2837,0.2866,0.287,0.2871,0.2884,0.2886,0.2923,0.2943,0.2955,0.2893,0.2907,0.3031,0.3135,0.3291,0.31,0.3412,0.342,0.3397,0.3594,0.3541,0.3824,0.3612,0.3618,0.3623,0,0.2749,0.2784,0.2826,0.289,0.2901,0.2906,0.2947,0.2951,0.3001,0.3011,0.3056,0.3056,0.3184,0.3138,0.3424,0.3308,0.3441,0.354,0.3556,0.3504,0.345,0.3686,0.39,0.3684,0.3681,0.3676,0.3672,0,0.2753,0.2809,0.2852,0.2866,0.2914,0.2934,0.2948,0.298,0.301,0.3086,0.3132,0.3246,0.3321,0.3516,0.3647,0.3582,0.3993,0.3937,0.4033,0.403,0.4035,0.402,0.4101,0.4208,0.4207,0.4207,0.4206,0,0.2773,0.2811,0.2863,0.2886,0.2932,0.2952,0.3003,0.303,0.3092,0.3148,0.3183,0.326,0.3433,0.3628,0.3757,0.4012,0.41,0.4101,0.4144,0.4065,0.405,0.3895,0.3817,0.4219,0.4216,0.4214,0.4212,0,0.2786,0.2819,0.2881,0.2931,0.2944,0.2975,0.303,0.306,0.3123,0.3208,0.3241,0.3361,0.3598,0.377,0.4101,0.4159,0.43,0.4469,0.4328,0.4348,0.4178,0.411,0.4165,0.4066,0.4654,0.4655,0.4657,0,0.2803,0.2836,0.2904,0.2921,0.2944,0.2987,0.2998,0.3061,0.3093,0.3255,0.3295,0.3527,0.365,0.4084,0.4281,0.4566,0.4383,0.4647,0.4503,0.4212,0.4172,0.3948,0.3843,0.4569,0.4569,0.4569,0.457,0,0.2819,0.2845,0.2881,0.2917,0.2939,0.2974,0.3004,0.3053,0.3128,0.3211,0.3349,0.348,0.3849,0.4069,0.4398,0.4572,0.4404,0.4657,0.4445,0.42,0.3887,0.3795,0.4257,0.4572,0.4572,0.4572,0.4572,0.4572,0.2813,0.2834,0.2866,0.2898,0.2919,0.2935,0.2942,0.2994,0.3064,0.3169,0.3335,0.3507,0.3832,0.4271,0.4388,0.4494,0.4432,0.4416,0.4394,0.4214,0.4001,0.4428,0.4709,0.471,0.471,0.4711,0.4711,0,0.2774,0.2793,0.283,0.2849,0.2842,0.2872,0.2907,0.2901,0.2948,0.3116,0.3235,0.3567,0.3799,0.4052,0.4299,0.4213,0.4073,0.4114,0.379,0.373,0.4227,0.4093,0.4144,0.4144,0.4144,0.4144,0.4145,0.4145,0.2745,0.2751,0.2772,0.2748,0.2755,0.2714,0.272,0.2742,0.2836,0.2991,0.3153,0.3333,0.3646,0.3879,0.3882,0.3873,0.3546,0.3489,0.3374,0.3691,0.3713,0.3733,0.3581,0.3524,0.3524,0.2743,0.2737,0.2733]},{"header":{"parameterUnit":"m.s-1","parameterCategory":2,"la1":30.2991,"la2":30.254,"lo1":-89.0895,"lo2":-89.0444,"dy":0.0017,"dx":0.0017,"nx":28,"ny":28,"refTime":"2025-12-14T03:00:00:Z","depth":"0","parameterNumber":3,"parameterNumberName":"V-component_of_CURRENTS"},"data":[0,0,0,0,0,0,0,0,0,0,0,0,0,0,0,0,0,0,0,0,0,0,0,0,0,0,0,0,0,0,0,0,0,0,0,0,0,0,0,0,0,0,0,0,0,0,0,0,0,0,0,0,0,0,0,0,0,0,-0.1199,-0.1201,0,-0.1353,-0.1355,-0.1357,-0.143,-0.1429,-0.1429,-0.1429,-0.1535,-0.1538,-0.1541,0,0,0,0,0,0,0,0,0,0,0,0,0,-0.1026,-0.1029,-0.1199,-0.1201,-0.1203,-0.1353,-0.1355,-0.1357,-0.143,-0.1429,-0.1429,-0.1429,-0.1534,-0.1537,-0.1541,0,0,0,0,0,0,0,0,0,0,0,0,0,-0.1134,-0.103,-0.1199,-0.1256,-0.1263,-0.1352,-0.1355,-0.1358,-0.143,-0.1429,-0.1429,-0.1429,-0.1532,-0.1537,-0.1541,-0.1575,0,0,-0.1555,-0.1557,0,0,0,0,0,0,0,0,-0.1128,-0.114,-0.1246,-0.1252,-0.126,-0.1371,-0.1333,-0.1428,-0.143,-0.1367,-0.1429,-0.1429,-0.1475,-0.1484,-0.1516,-0.158,-0.1584,-0.1555,-0.1558,-0.156,-0.1561,0,0,0,0,0,0,0,-0.112,-0.1134,-0.1261,-0.1248,-0.1256,-0.1294,-0.1309,-0.1352,-0.1421,-0.1373,-0.1378,-0.1394,-0.1478,-0.1512,-0.1519,-0.1586,-0.1555,-0.1559,-0.1562,-0.1564,-0.1604,-0.1602,0,0,0,0,0,0,-0.1096,-0.1127,-0.1257,-0.1266,-0.119,-0.1297,-0.1313,-0.1336,-0.1422,-0.1435,-0.1394,-0.1396,-0.1504,-0.1514,-0.1523,-0.1525,-0.156,-0.1564,-0.1567,-0.1605,-0.1603,-0.1602,0,0,0,0,0,0,-0.1092,-0.1107,-0.125,-0.1198,-0.1219,-0.13,-0.1326,-0.134,-0.1372,-0.1438,-0.145,-0.1411,-0.1504,-0.1516,-0.1567,-0.1531,-0.1566,-0.157,-0.1607,-0.1605,-0.1603,-0.1556,0,0,0,0,0,0,-0.1087,-0.1105,-0.1112,-0.1197,-0.1221,-0.1303,-0.1326,-0.1343,-0.1382,-0.1387,-0.1457,-0.1467,-0.1505,-0.156,-0.1571,-0.1538,-0.1574,-0.1609,-0.1606,-0.1603,-0.156,-0.1552,-0.1546,0,0,0,0,0,-0.108,-0.1096,-0.1112,-0.1127,-0.123,-0.1303,-0.1319,-0.1376,-0.1382,-0.1403,-0.1449,-0.1465,-0.1546,-0.1565,-0.1578,-0.1544,-0.1611,-0.1607,-0.1604,-0.1563,-0.1554,-0.1546,0,0,0,0,0,0,-0.1026,-0.1107,-0.1126,-0.1165,-0.1225,-0.1315,-0.134,-0.1372,-0.1427,-0.1426,-0.1479,-0.1494,-0.1515,-0.1537,-0.1555,-0.154,-0.1566,-0.1565,-0.153,-0.1523,-0.1516,-0.1449,-0.1578,0,0,0,0,0,-0.1015,-0.1047,-0.1127,-0.1156,-0.1185,-0.1258,-0.1292,-0.133,-0.139,-0.1414,-0.1464,-0.1493,-0.1511,-0.1525,-0.1558,-0.1572,-0.1494,-0.1544,-0.1537,-0.1531,-0.1482,-0.1302,-0.1273,-0.159,-0.159,-0.159,0,0,-0.1,-0.1049,-0.1066,-0.1146,-0.1197,-0.1241,-0.1279,-0.1331,-0.1356,-0.1415,-0.1464,-0.1488,-0.1512,-0.1525,-0.1531,-0.1539,-0.1413,-0.1526,-0.1522,-0.1475,-0.1295,-0.1264,-0.1235,-0.1587,-0.1588,-0.1588,0,0,-0.099,-0.1032,-0.1056,-0.1106,-0.1179,-0.1226,-0.1235,-0.1322,-0.1349,-0.1403,-0.1425,-0.1414,-0.1492,-0.1469,-0.147,-0.1437,-0.1389,-0.1455,-0.1365,-0.1193,-0.1163,-0.1137,-0.1049,-0.1014,-0.1443,-0.1443,-0.1443,0,-0.0965,-0.1009,-0.1073,-0.1112,-0.1139,-0.1213,-0.1235,-0.1285,-0.1373,-0.1361,-0.1409,-0.1403,-0.1443,-0.1377,-0.1375,-0.1416,-0.1337,-0.1404,-0.1178,-0.115,-0.1123,-0.1039,-0.1001,-0.144,-0.144,-0.1441,-0.1441,0,-0.0981,-0.1012,-0.1032,-0.1098,-0.1136,-0.1172,-0.1238,-0.1267,-0.1301,-0.1322,-0.1284,-0.1316,-0.1284,-0.1299,-0.1344,-0.1176,-0.1192,-0.1197,-0.1193,-0.1088,-0.1008,-0.0969,-0.1436,-0.1437,-0.1438,-0.1439,0,0,-0.0924,-0.102,-0.1023,-0.1034,-0.1125,-0.115,-0.1183,-0.1201,-0.1162,-0.1219,-0.1132,-0.116,-0.1131,-0.1124,-0.114,-0.1008,-0.0803,-0.1024,-0.1016,-0.0926,-0.0457,-0.0536,-0.0503,-0.0756,-0.0748,-0.0741,-0.0495,0,-0.0909,-0.0952,-0.1008,-0.1028,-0.1048,-0.1105,-0.1102,-0.1119,-0.1135,-0.108,-0.1046,-0.0991,-0.1079,-0.103,-0.0915,-0.0819,-0.069,-0.0871,-0.0579,-0.0571,-0.0642,-0.0455,-0.0447,-0.023,-0.0457,-0.0451,-0.0446,0,-0.0895,-0.0924,-0.0937,-0.0951,-0.0957,-0.0968,-0.0933,-0.0951,-0.0899,-0.0888,-0.0818,-0.0806,-0.066,-0.0729,-0.047,-0.0579,-0.0503,-0.0434,-0.0422,-0.0468,-0.0574,-0.0361,-0.0151,-0.0349,-0.0387,-0.0392,-0.0396,0,-0.0802,-0.0861,-0.0854,-0.0874,-0.091,-0.0887,-0.0893,-0.0867,-0.0825,-0.0742,-0.0659,-0.0538,-0.0423,-0.0287,-0.0228,-0.0301,0.0073,-0.0009,-0.0008,-0.0018,0.0065,0.005,0.0142,0.0236,0.0235,0.0235,0.0234,0,-0.0754,-0.0745,-0.0802,-0.08,-0.0735,-0.0791,-0.0696,-0.0697,-0.062,-0.0501,-0.0527,-0.0374,-0.0286,-0.0125,-0.0092,0.0071,0.019,0.0077,0.0089,0.0067,0.0051,-0.0062,-0.0213,0.0244,0.0242,0.024,0.0238,0,-0.0651,-0.0701,-0.0686,-0.0705,-0.0694,-0.0646,-0.0594,-0.0516,-0.0473,-0.0309,-0.0259,-0.0159,0.0045,0.009,0.0329,0.0268,0.0322,0.0426,0.0334,0.0331,0.0084,-0.0066,0.0128,0.0015,0.0496,0.0496,0.0496,0,-0.0597,-0.0589,-0.0597,-0.0565,-0.0569,-0.0511,-0.0445,-0.043,-0.0346,-0.0163,-0.0046,0.0147,0.0315,0.0549,0.0519,0.0594,0.041,0.0569,0.043,0.0137,-0.0017,-0.0097,-0.0215,0.0543,0.0543,0.0544,0.0544,0,-0.0491,-0.05,-0.0488,-0.043,-0.0375,-0.0303,-0.0222,-0.0131,-0.0063,0.009,0.0326,0.0477,0.0632,0.0736,0.0724,0.0705,0.0386,0.0574,0.0379,0.0136,-0.0032,-0.016,0.0223,0.0549,0.0548,0.0548,0.0548,0.0547,-0.0396,-0.0361,-0.035,-0.0285,-0.0217,-0.0101,0.0003,0.0117,0.0293,0.0546,0.0624,0.0916,0.0932,0.0937,0.077,0.0458,0.0433,0.0354,0.0231,0.0203,0.0005,0.0328,0.0576,0.0576,0.0576,0.0575,0.0575,0,-0.03,-0.0271,-0.0205,-0.0129,-0.002,-0.0015,0.0155,0.0289,0.0533,0.08,0.1023,0.1312,0.1176,0.0975,0.0594,0.0224,0.0058,0.0003,-0.0092,-0.0174,0.0255,0.0154,0.0194,0.0194,0.0194,0.0194,0.0194,0.0195,-0.0246,-0.0178,-0.0156,0.0024,0.0102,0.0278,0.0392,0.06,0.0818,0.1244,0.1541,0.1747,0.1793,0.0844,0.016,-0.0084,-0.0451,-0.0479,-0.0669,-0.0416,-0.0394,-0.0373,-0.0499,-0.0597,-0.0598,-0.1031,-0.1035,-0.1039]}],[{"header":{"parameterUnit":"m.s-1","parameterCategory":2,"la1":30.2991,"la2":30.254,"lo1":-89.0895,"lo2":-89.0444,"dy":0.0017,"dx":0.0017,"nx":28,"ny":28,"refTime":"2025-12-14T03:00:00:Z","depth":"2","parameterNumber":2,"parameterNumberName":"U-component_of_CURRENTS"},"data":[0,0,0,0,0,0,0,0,0,0,0,0,0,0,0,0,0,0,0,0,0,0,0,0,0,0,0,0,0,0,0,0,0,0,0,0,0,0,0,0,0,0,0,0,0,0,0,0,0,0,0,0,0,0,0,0,0,0,0.1534,0.1534,0,0.1514,0.1514,0.1513,0.15,0.15,0.15,0.15,0.148,0.148,0.1479,0,0,0,0,0,0,0,0,0,0,0,0,0,0.1573,0.1572,0.1534,0.1534,0.1534,0.1514,0.1514,0.1513,0.15,0.15,0.15,0.15,0.148,0.148,0.1479,0,0,0,0,0,0,0,0,0,0,0,0,0,0.1553,0.1572,0.1534,0.1526,0.1526,0.1514,0.1514,0.1513,0.15,0.15,0.15,0.15,0.1481,0.148,0.1479,0.147,0,0,0.1476,0.1476,0,0,0,0,0,0,0,0,0.1554,0.1551,0.1527,0.1527,0.1526,0.1512,0.152,0.1499,0.15,0.1507,0.15,0.1501,0.1492,0.149,0.1483,0.1469,0.1468,0.1476,0.1475,0.1475,0.1475,0,0,0,0,0,0,0,0.1555,0.1552,0.1524,0.1527,0.1527,0.1529,0.1526,0.1516,0.1497,0.1507,0.1506,0.1508,0.1491,0.1484,0.1482,0.1468,0.1476,0.1475,0.1474,0.1474,0.1494,0.1495,0,0,0,0,0,0,0.1561,0.1553,0.1524,0.1523,0.1543,0.1528,0.1524,0.1514,0.1498,0.1496,0.1507,0.1507,0.1485,0.1484,0.1482,0.1515,0.1475,0.1474,0.1473,0.1493,0.1494,0.1496,0,0,0,0,0,0,0.1562,0.1558,0.1525,0.154,0.1537,0.1527,0.1516,0.1514,0.1511,0.1498,0.1496,0.1508,0.1486,0.1483,0.1483,0.1512,0.1474,0.1473,0.1492,0.1493,0.1495,0.1552,0,0,0,0,0,0,0.1563,0.1558,0.1555,0.154,0.1536,0.1524,0.1516,0.1513,0.1513,0.1512,0.1498,0.1496,0.1485,0.1485,0.1482,0.151,0.1472,0.149,0.1493,0.1494,0.1549,0.1556,0.1561,0,0,0,0,0,0.1564,0.1553,0.1555,0.1552,0.1531,0.1525,0.1523,0.1515,0.1513,0.1513,0.1507,0.1497,0.1497,0.1484,0.1481,0.151,0.1489,0.1492,0.1494,0.1546,0.1554,0.1561,0,0,0,0,0,0,0.1565,0.1551,0.1552,0.1537,0.1538,0.1524,0.1523,0.1519,0.1513,0.1515,0.1501,0.1499,0.1513,0.15,0.1487,0.1523,0.1495,0.1497,0.1536,0.1543,0.1549,0.1577,0.1471,0,0,0,0,0,0.1566,0.1557,0.155,0.1541,0.1542,0.1535,0.1533,0.1529,0.1523,0.152,0.1511,0.151,0.152,0.1522,0.1519,0.1531,0.1578,0.1551,0.1557,0.1562,0.1583,0.168,0.1698,0.1504,0.1504,0.1504,0,0,0.1563,0.1557,0.155,0.1542,0.154,0.1547,0.1533,0.1532,0.1544,0.1519,0.1527,0.1526,0.1527,0.1545,0.1552,0.1539,0.1645,0.1565,0.157,0.1589,0.1685,0.1704,0.1721,0.1505,0.1505,0.1505,0,0,0.1556,0.155,0.1544,0.155,0.1553,0.1555,0.1558,0.155,0.1554,0.1558,0.1557,0.158,0.1566,0.1593,0.1601,0.1641,0.1673,0.1633,0.1689,0.1783,0.18,0.1816,0.1919,0.1944,0.1639,0.1639,0.1639,0,0.1556,0.1548,0.1543,0.1548,0.156,0.1562,0.1571,0.1578,0.1572,0.1593,0.1567,0.1609,0.1599,0.1665,0.1676,0.1659,0.1719,0.166,0.1794,0.1811,0.1826,0.1927,0.1954,0.1642,0.1642,0.1641,0.1641,0,0.1547,0.1552,0.1552,0.1564,0.1576,0.1583,0.16,0.1618,0.1622,0.1635,0.1686,0.1684,0.1722,0.1719,0.1704,0.1811,0.1822,0.1791,0.178,0.185,0.1951,0.1978,0.1646,0.1645,0.1644,0.1644,0,0,0.1516,0.154,0.1543,0.1562,0.1587,0.1596,0.1636,0.1677,0.1725,0.1728,0.1798,0.1812,0.1831,0.1843,0.1844,0.1912,0.2064,0.1899,0.1902,0.2011,0.2296,0.2194,0.2213,0.2061,0.2066,0.2069,0.233,0,0.1514,0.1531,0.1546,0.1579,0.1594,0.1631,0.1672,0.1719,0.1757,0.1824,0.1863,0.1915,0.1874,0.1904,0.1973,0.2035,0.2135,0.1998,0.2204,0.2211,0.2119,0.224,0.1958,0.2157,0.2356,0.236,0.2363,0,0.1497,0.1517,0.1543,0.1603,0.1615,0.1642,0.1734,0.1771,0.1877,0.1912,0.1992,0.2023,0.2132,0.2077,0.2266,0.2183,0.2259,0.2304,0.2314,0.2219,0.2157,0.2115,0.2198,0.2408,0.2405,0.2401,0.2398,0,0.1475,0.1516,0.1542,0.1558,0.1624,0.166,0.1704,0.18,0.1858,0.1985,0.2053,0.2169,0.2247,0.2351,0.2441,0.2374,0.2657,0.2574,0.2572,0.2566,0.2367,0.2334,0.2748,0.2747,0.2747,0.2746,0.2745,0,0.146,0.1482,0.1536,0.1551,0.1604,0.1655,0.1734,0.1801,0.1922,0.2018,0.2102,0.221,0.232,0.2474,0.2533,0.2652,0.2749,0.2626,0.2637,0.2377,0.2344,0.2574,0.255,0.2756,0.2754,0.2752,0.275,0,0.1425,0.1459,0.1493,0.1565,0.1591,0.1629,0.1736,0.1802,0.192,0.206,0.211,0.2291,0.2492,0.2621,0.282,0.2768,0.2885,0.2912,0.2601,0.2568,0.2711,0.2687,0.2925,0.2924,0.2923,0.2922,0.2921,0,0.1406,0.1418,0.1489,0.1516,0.1547,0.1613,0.1666,0.1785,0.187,0.2105,0.2182,0.2421,0.2552,0.2806,0.2791,0.2906,0.3,0.2699,0.249,0.2748,0.2736,0.2713,0.2691,0.2274,0.2268,0.2264,0.226,0,0.1371,0.1396,0.1427,0.1483,0.1533,0.1589,0.1682,0.1749,0.1914,0.2053,0.2261,0.2381,0.2576,0.2542,0.2654,0.2661,0.2634,0.2599,0.3012,0.2239,0.2146,0.2129,0.2128,0.2216,0.2221,0.2224,0.2226,0.2228,0.1343,0.1354,0.1398,0.1447,0.1499,0.1554,0.1593,0.1715,0.1847,0.1988,0.2162,0.2225,0.2276,0.2258,0.2286,0.2281,0.2429,0.2295,0.2306,0.2323,0.2167,0.2073,0.2104,0.2108,0.2111,0.2114,0.2116,0,0.1304,0.1326,0.1363,0.1414,0.1442,0.1497,0.1596,0.1615,0.1741,0.1808,0.1915,0.1754,0.1752,0.1881,0.176,0.176,0.1699,0.1741,0.1634,0.1677,0.1716,0.1525,0.1295,0.1293,0.1291,0.129,0,0,0.1286,0.1299,0.1317,0.1341,0.138,0.1407,0.1448,0.1483,0.1506,0.1465,0.143,0.1494,0.1659,0.1384,0.1406,0.1337,0.1478,0.1277,0.192,0.1826,0.1861,0.2012,0.1764,0,0,0,0,0]},{"header":{"parameterUnit":"m.s-1","parameterCategory":2,"la1":30.2991,"la2":30.254,"lo1":-89.0895,"lo2":-89.0444,"dy":0.0017,"dx":0.0017,"nx":28,"ny":28,"refTime":"2025-12-14T03:00:00:Z","depth":"2","parameterNumber":3,"parameterNumberName":"V-component_of_CURRENTS"},"data":[0,0,0,0,0,0,0,0,0,0,0,0,0,0,0,0,0,0,0,0,0,0,0,0,0,0,0,0,0,0,0,0,0,0,0,0,0,0,0,0,0,0,0,0,0,0,0,0,0,0,0,0,0,0,0,0,0,0,-0.0017,-0.0019,0,-0.015,-0.0152,-0.0154,-0.0244,-0.0244,-0.0245,-0.0245,-0.0402,-0.0405,-0.0409,0,0,0,0,0,0,0,0,0,0,0,0,0,0.013,0.0128,-0.0017,-0.0019,-0.0021,-0.015,-0.0152,-0.0154,-0.0243,-0.0244,-0.0245,-0.0246,-0.04,-0.0405,-0.0409,0,0,0,0,0,0,0,0,0,0,0,0,0,0.0038,0.0127,-0.0017,-0.0081,-0.0088,-0.015,-0.0152,-0.0154,-0.0243,-0.0244,-0.0245,-0.0246,-0.0399,-0.0404,-0.0409,-0.0425,0,0,-0.0426,-0.0428,0,0,0,0,0,0,0,0,0.0043,0.0033,-0.007,-0.0076,-0.0084,-0.0181,-0.0158,-0.0246,-0.0243,-0.0185,-0.0245,-0.0246,-0.0329,-0.034,-0.0363,-0.0432,-0.0439,-0.0426,-0.043,-0.0432,-0.0434,0,0,0,0,0,0,0,0.005,0.0038,-0.007,-0.0071,-0.008,-0.0113,-0.0126,-0.0175,-0.0251,-0.019,-0.0196,-0.021,-0.0333,-0.0358,-0.0368,-0.0441,-0.0426,-0.0431,-0.0434,-0.0437,-0.0573,-0.0573,0,0,0,0,0,0,0.0069,0.0044,-0.0066,-0.0074,-0.0021,-0.0114,-0.013,-0.0149,-0.025,-0.0266,-0.0209,-0.0214,-0.0348,-0.0361,-0.0374,-0.0431,-0.0432,-0.0437,-0.044,-0.0573,-0.0573,-0.0573,0,0,0,0,0,0,0.0073,0.0061,-0.0061,-0.0018,-0.0035,-0.0116,-0.0137,-0.0151,-0.0196,-0.0265,-0.0281,-0.0241,-0.035,-0.0366,-0.0428,-0.0436,-0.0439,-0.0444,-0.0572,-0.0573,-0.0573,-0.0524,0,0,0,0,0,0,0.0078,0.0063,0.0049,-0.0016,-0.0037,-0.0102,-0.0137,-0.0153,-0.0202,-0.021,-0.0297,-0.0311,-0.0352,-0.042,-0.0433,-0.0444,-0.0449,-0.0572,-0.0572,-0.0573,-0.0525,-0.0523,-0.0521,0,0,0,0,0,0.0083,0.0068,0.0049,0.0035,-0.0051,-0.0102,-0.0116,-0.0176,-0.0202,-0.022,-0.0279,-0.031,-0.0434,-0.0424,-0.044,-0.0453,-0.0571,-0.0572,-0.0573,-0.0526,-0.0523,-0.0521,0,0,0,0,0,0,0.0118,0.0056,0.0033,-0.0002,-0.0049,-0.0117,-0.0145,-0.0181,-0.0242,-0.0256,-0.0319,-0.0337,-0.0392,-0.043,-0.0417,-0.0494,-0.0506,-0.051,-0.0465,-0.0463,-0.0461,-0.0435,-0.0453,0,0,0,0,0,0.0124,0.0098,0.0037,0.0008,-0.0015,-0.008,-0.0112,-0.015,-0.0209,-0.0238,-0.03,-0.036,-0.0405,-0.044,-0.0488,-0.0533,-0.0538,-0.0551,-0.0548,-0.0546,-0.0536,-0.0551,-0.0548,-0.0576,-0.0576,-0.0576,0,0,0.0129,0.0092,0.0075,0.0015,-0.003,-0.006,-0.0103,-0.0152,-0.0179,-0.0244,-0.0308,-0.0357,-0.0415,-0.0463,-0.0491,-0.0499,-0.0539,-0.0547,-0.0545,-0.0536,-0.0551,-0.0548,-0.0546,-0.0577,-0.0577,-0.0577,0,0,0.0133,0.0093,0.0074,0.0041,-0.002,-0.0057,-0.007,-0.0145,-0.0183,-0.0242,-0.0289,-0.0338,-0.0427,-0.0459,-0.0486,-0.0501,-0.0525,-0.0526,-0.05,-0.0514,-0.0511,-0.0509,-0.0495,-0.0492,-0.0528,-0.0528,-0.0528,0,0.014,0.0108,0.0061,0.0038,0.0014,-0.0052,-0.0071,-0.0116,-0.0201,-0.0222,-0.0258,-0.0362,-0.0418,-0.0452,-0.0463,-0.0495,-0.05,-0.0503,-0.0509,-0.0507,-0.0505,-0.0492,-0.0489,-0.0525,-0.0526,-0.0526,-0.0526,0,0.0132,0.0106,0.0092,0.0045,0.0017,-0.0013,-0.0068,-0.0106,-0.0159,-0.0201,-0.0257,-0.0327,-0.0386,-0.0412,-0.0449,-0.0466,-0.0471,-0.0499,-0.0508,-0.0499,-0.0486,-0.0484,-0.0522,-0.0523,-0.0524,-0.0524,0,0,0.0144,0.0097,0.0089,0.0081,0.002,-0.0001,-0.0037,-0.0081,-0.0094,-0.0178,-0.0192,-0.0283,-0.0322,-0.0355,-0.0404,-0.0422,-0.0419,-0.0459,-0.046,-0.0431,-0.0431,-0.0393,-0.0387,-0.0453,-0.0452,-0.0452,-0.0419,0,0.0147,0.0126,0.0097,0.0079,0.0065,0.0018,-0.0,-0.0043,-0.009,-0.012,-0.0185,-0.023,-0.03,-0.0328,-0.0358,-0.0399,-0.0415,-0.0424,-0.0456,-0.0456,-0.0413,-0.0384,-0.0426,-0.0397,-0.0417,-0.0417,-0.0417,0,0.0145,0.0135,0.0121,0.0111,0.01,0.0077,0.0053,0.0028,-0.0018,-0.0052,-0.0102,-0.0155,-0.0199,-0.0261,-0.032,-0.0325,-0.0378,-0.0409,-0.0409,-0.0388,-0.0415,-0.0415,-0.0392,-0.0413,-0.0413,-0.0414,-0.0414,0,0.0182,0.0154,0.015,0.0139,0.0111,0.0097,0.0075,0.0038,0.0036,-0.0014,-0.001,-0.0082,-0.0106,-0.0182,-0.0256,-0.0297,-0.0292,-0.036,-0.0369,-0.0366,-0.0413,-0.0414,-0.0401,-0.0401,-0.0401,-0.0401,-0.0401,0,0.0203,0.0199,0.016,0.0157,0.0162,0.0126,0.0128,0.01,0.0085,0.0117,0.002,0.0051,-0.0091,-0.0109,-0.0202,-0.0248,-0.0255,-0.0344,-0.0353,-0.0395,-0.0395,-0.0429,-0.0433,-0.04,-0.04,-0.04,-0.0401,0,0.0246,0.0214,0.0215,0.0186,0.0175,0.0175,0.0163,0.0185,0.015,0.0197,0.0187,0.0152,0.0145,0.0042,-0.0046,-0.0159,-0.022,-0.024,-0.0259,-0.0271,-0.0303,-0.0305,-0.0263,-0.0261,-0.026,-0.0259,-0.0258,0,0.0269,0.0269,0.0244,0.0252,0.0232,0.0225,0.0241,0.021,0.0255,0.0287,0.0344,0.0332,0.04,0.0301,0.0075,-0.0057,-0.0098,-0.0202,-0.0303,-0.0274,-0.0288,-0.0292,-0.0296,-0.0346,-0.0346,-0.0346,-0.0346,0,0.0328,0.0307,0.0316,0.0326,0.0332,0.0362,0.0383,0.044,0.045,0.0531,0.0661,0.0718,0.0571,0.0424,0.0196,0.0071,-0.019,-0.0202,-0.0165,-0.0364,-0.0348,-0.0363,-0.0365,-0.0345,-0.0345,-0.0345,-0.0345,-0.0345,0.0377,0.0398,0.0401,0.042,0.0438,0.0514,0.0582,0.0677,0.0812,0.0962,0.0939,0.0992,0.069,0.0412,0.0198,-0.0106,-0.0116,-0.026,-0.0264,-0.0266,-0.0272,-0.0253,-0.0231,-0.0231,-0.023,-0.023,-0.0229,0,0.0446,0.0463,0.0499,0.0534,0.0595,0.0566,0.0698,0.0834,0.1069,0.1135,0.1258,0.0979,0.0792,0.0478,0.0014,-0.0223,-0.0292,-0.0281,-0.0348,-0.0348,-0.0349,-0.0361,-0.0343,-0.0343,-0.0343,-0.0344,0,0,0.0483,0.054,0.0561,0.0671,0.0693,0.0811,0.0907,0.1145,0.1239,0.1382,0.1325,0.125,0.0814,0.0467,0.0129,-0.0105,-0.0164,-0.0149,-0.0046,-0.0089,-0.0086,-0.0338,-0.0357,0,0,0,0,0]}],[{"header":{"parameterUnit":"m.s-1","parameterCategory":2,"la1":30.2991,"la2":30.254,"lo1":-89.0895,"lo2":-89.0444,"dy":0.0017,"dx":0.0017,"nx":28,"ny":28,"refTime":"2025-12-14T03:00:00:Z","depth":"4","parameterNumber":2,"parameterNumberName":"U-component_of_CURRENTS"},"data":[0,0,0,0,0,0,0,0,0,0,0,0,0,0,0,0,0,0,0,0,0,0,0,0,0,0,0,0,0,0,0,0,0,0,0,0,0,0,0,0,0,0,0,0,0,0,0,0,0,0,0,0,0,0,0,0,0,0,0.0423,0.0424,0,0.0476,0.0476,0.0477,0.0522,0.0523,0.0523,0.0524,0.0615,0.0617,0.0619,0,0,0,0,0,0,0,0,0,0,0,0,0,0.0348,0.0349,0.0423,0.0424,0.0425,0.0476,0.0476,0.0477,0.0522,0.0523,0.0523,0.0524,0.0614,0.0617,0.0619,0,0,0,0,0,0,0,0,0,0,0,0,0,0.0388,0.035,0.0423,0.0454,0.0457,0.0476,0.0477,0.0477,0.0522,0.0523,0.0523,0.0524,0.0614,0.0616,0.0619,0.0619,0,0,0.0628,0.0629,0,0,0,0,0,0,0,0,0.0385,0.039,0.0449,0.0452,0.0456,0.0494,0.0484,0.0527,0.0521,0.0496,0.0524,0.0525,0.0578,0.0584,0.059,0.0623,0.0627,0.0628,0.063,0.0631,0.0632,0,0,0,0,0,0,0,0.0383,0.0388,0.0443,0.0449,0.0454,0.0461,0.0467,0.0492,0.0531,0.0498,0.0502,0.0509,0.058,0.0587,0.0593,0.0628,0.0628,0.063,0.0632,0.0633,0.0746,0.0747,0,0,0,0,0,0,0.0378,0.0386,0.0441,0.0445,0.0423,0.0461,0.0469,0.048,0.0531,0.0539,0.0508,0.0511,0.0582,0.0589,0.0596,0.0684,0.0631,0.0634,0.0635,0.0745,0.0746,0.0748,0,0,0,0,0,0,0.0376,0.0383,0.0439,0.0417,0.0425,0.0462,0.0474,0.0481,0.0513,0.0538,0.0547,0.0537,0.0583,0.0592,0.0641,0.0684,0.0635,0.0637,0.0743,0.0745,0.0747,0.0805,0,0,0,0,0,0,0.0374,0.0382,0.0385,0.0417,0.0426,0.0461,0.0474,0.0481,0.0515,0.052,0.0565,0.0573,0.0584,0.0636,0.0644,0.0687,0.064,0.0742,0.0744,0.0746,0.0801,0.0808,0.0815,0,0,0,0,0,0.0371,0.0376,0.0385,0.0391,0.043,0.0462,0.0468,0.0496,0.0516,0.0528,0.0566,0.0573,0.0657,0.064,0.0648,0.0694,0.074,0.0743,0.0746,0.0798,0.0807,0.0814,0,0,0,0,0,0,0.0351,0.0382,0.0392,0.0408,0.0437,0.047,0.0486,0.0508,0.0546,0.0558,0.0587,0.0597,0.0655,0.0662,0.0642,0.0732,0.0701,0.0706,0.0738,0.0746,0.0753,0.074,0.0642,0,0,0,0,0,0.0345,0.0355,0.039,0.0404,0.0422,0.0458,0.0475,0.0496,0.0534,0.0553,0.0597,0.0636,0.0668,0.0698,0.0722,0.0772,0.077,0.0807,0.0814,0.0819,0.0814,0.0852,0.0862,0.0757,0.0757,0.0757,0,0,0.0343,0.0359,0.0367,0.0399,0.0427,0.045,0.0472,0.0506,0.0542,0.0556,0.0632,0.0659,0.0684,0.074,0.0768,0.0757,0.0848,0.0823,0.0828,0.0819,0.0856,0.0866,0.0875,0.0759,0.0759,0.0759,0,0,0.0343,0.0362,0.0373,0.0399,0.0438,0.0454,0.047,0.0526,0.0572,0.0618,0.0655,0.07,0.0755,0.0791,0.0808,0.0863,0.0876,0.0892,0.0928,0.0966,0.0975,0.0982,0.099,0.0998,0.0903,0.0904,0.0904,0,0.0335,0.036,0.0382,0.0405,0.0434,0.046,0.0491,0.0529,0.06,0.0648,0.0644,0.0745,0.0766,0.0843,0.087,0.0878,0.0901,0.0897,0.0975,0.0982,0.0989,0.0995,0.1003,0.0907,0.0906,0.0906,0.0906,0,0.035,0.0373,0.0389,0.0421,0.0451,0.0482,0.0536,0.0588,0.063,0.0668,0.0759,0.079,0.085,0.0875,0.0888,0.0975,0.0975,0.0973,0.0954,0.1003,0.1006,0.1014,0.0911,0.091,0.0909,0.0908,0,0,0.0329,0.0384,0.0393,0.0419,0.0469,0.0496,0.0563,0.0632,0.0688,0.0744,0.0823,0.088,0.0912,0.0935,0.098,0.1018,0.1083,0.1033,0.1034,0.1039,0.1168,0.1086,0.1085,0.1119,0.112,0.1122,0.115,0,0.0338,0.0371,0.0409,0.0456,0.0483,0.0543,0.0603,0.067,0.0727,0.0807,0.0858,0.0934,0.0935,0.0987,0.1023,0.1076,0.1107,0.1074,0.112,0.112,0.104,0.1092,0.1127,0.1155,0.1157,0.1158,0.1159,0,0.0346,0.0367,0.041,0.0486,0.051,0.0543,0.0647,0.0712,0.0817,0.0871,0.0944,0.099,0.1077,0.1057,0.1143,0.1138,0.1157,0.1173,0.1174,0.1078,0.1051,0.1096,0.1172,0.1171,0.117,0.1169,0.1168,0,0.0316,0.0378,0.0409,0.0434,0.0512,0.057,0.0629,0.0732,0.0811,0.0933,0.0984,0.107,0.1134,0.1169,0.1197,0.12,0.1261,0.1258,0.119,0.1183,0.1222,0.1213,0.1301,0.1301,0.1301,0.1301,0.1301,0,0.031,0.0339,0.0398,0.042,0.0484,0.056,0.0656,0.0734,0.0848,0.0929,0.1028,0.1085,0.1174,0.1217,0.1221,0.1218,0.1277,0.1196,0.1192,0.1244,0.1238,0.1226,0.1218,0.1302,0.1301,0.1301,0.1301,0,0.0274,0.0309,0.0351,0.0435,0.0471,0.0524,0.067,0.073,0.0855,0.0964,0.1015,0.1129,0.119,0.1232,0.1287,0.1249,0.1249,0.1228,0.1267,0.1263,0.114,0.1134,0.1167,0.1164,0.1162,0.116,0.1159,0,0.0258,0.0268,0.035,0.0382,0.0426,0.0521,0.0584,0.0722,0.0791,0.0967,0.1002,0.1116,0.1176,0.1175,0.1216,0.1216,0.1202,0.1195,0.118,0.1137,0.113,0.1127,0.1124,0.1155,0.1155,0.1154,0.1153,0,0.0223,0.0249,0.0281,0.0342,0.0405,0.0483,0.0589,0.0632,0.0792,0.0904,0.0988,0.104,0.1099,0.1125,0.1141,0.113,0.1199,0.1173,0.1177,0.1163,0.1124,0.1118,0.1118,0.1146,0.1147,0.1148,0.1148,0,0.0195,0.0204,0.0246,0.0305,0.0372,0.0429,0.0496,0.0588,0.0678,0.087,0.0877,0.0986,0.1079,0.1079,0.1074,0.1078,0.1071,0.1044,0.1055,0.1064,0.1017,0.0951,0.0921,0,0,0,0,0,0.0168,0.0177,0.0213,0.0272,0.0333,0.038,0.049,0.0556,0.0698,0.0737,0.0819,0.0869,0.0921,0.0955,0.094,0.101,0.1055,0.0987,0.1024,0.1105,0.1113,0.1067,0,0,0,0,0,0,0.015,0.017,0.0189,0.0231,0.0265,0.0333,0.0397,0.0486,0.0525,0.0667,0.069,0.0809,0.0852,0.0916,0.0918,0.0931,0.0936,0.1052,0.105,0.11,0.1108,0.1115,0.107,0,0,0,0,0]},{"header":{"parameterUnit":"m.s-1","parameterCategory":2,"la1":30.2991,"la2":30.254,"lo1":-89.0895,"lo2":-89.0444,"dy":0.0017,"dx":0.0017,"nx":28,"ny":28,"refTime":"2025-12-14T03:00:00:Z","depth":"4","parameterNumber":3,"parameterNumberName":"V-component_of_CURRENTS"},"data":[0,0,0,0,0,0,0,0,0,0,0,0,0,0,0,0,0,0,0,0,0,0,0,0,0,0,0,0,0,0,0,0,0,0,0,0,0,0,0,0,0,0,0,0,0,0,0,0,0,0,0,0,0,0,0,0,0,0,0.0407,0.0407,0,0.039,0.039,0.039,0.0387,0.0387,0.0388,0.0388,0.0339,0.0338,0.0336,0,0,0,0,0,0,0,0,0,0,0,0,0,0.0405,0.0405,0.0407,0.0407,0.0407,0.039,0.039,0.0389,0.0387,0.0387,0.0388,0.0388,0.034,0.0338,0.0336,0,0,0,0,0,0,0,0,0,0,0,0,0,0.0399,0.0405,0.0407,0.0403,0.0403,0.039,0.039,0.0389,0.0387,0.0387,0.0388,0.0388,0.034,0.0338,0.0336,0.0318,0,0,0.0329,0.0328,0,0,0,0,0,0,0,0,0.0399,0.0399,0.0404,0.0404,0.0403,0.0391,0.0371,0.0364,0.0387,0.0393,0.0388,0.0388,0.0353,0.035,0.0347,0.0316,0.0314,0.0329,0.0328,0.0327,0.0326,0,0,0,0,0,0,0,0.04,0.0399,0.04,0.0404,0.0403,0.0391,0.0391,0.037,0.0372,0.0393,0.0392,0.039,0.0353,0.0349,0.0346,0.0313,0.0329,0.0327,0.0326,0.0325,0.0266,0.0266,0,0,0,0,0,0,0.0403,0.04,0.0401,0.04,0.0402,0.0391,0.0391,0.0395,0.0372,0.037,0.039,0.039,0.0353,0.0348,0.0344,0.0332,0.0327,0.0325,0.0324,0.0266,0.0266,0.0265,0,0,0,0,0,0,0.0403,0.0404,0.0401,0.0399,0.0398,0.0391,0.0395,0.0394,0.0399,0.0371,0.0368,0.0397,0.0353,0.0347,0.0332,0.033,0.0324,0.0322,0.0266,0.0266,0.0266,0.0301,0,0,0,0,0,0,0.0403,0.0404,0.0409,0.04,0.0398,0.0399,0.0395,0.0394,0.0397,0.0397,0.0376,0.0371,0.0352,0.0335,0.0329,0.0327,0.032,0.0267,0.0266,0.0266,0.0301,0.0302,0.0304,0,0,0,0,0,0.0403,0.0412,0.041,0.041,0.0406,0.0399,0.0397,0.0393,0.0397,0.0399,0.0386,0.0372,0.0327,0.0333,0.0327,0.0323,0.0267,0.0266,0.0266,0.03,0.0302,0.0304,0,0,0,0,0,0,0.0417,0.0412,0.041,0.0418,0.041,0.0399,0.0404,0.0399,0.0391,0.0394,0.0371,0.0365,0.0349,0.0331,0.0338,0.0303,0.0294,0.0292,0.0322,0.0323,0.0325,0.0321,0.0318,0,0,0,0,0,0.0421,0.0428,0.0417,0.0424,0.0424,0.0416,0.0414,0.0409,0.04,0.0398,0.0385,0.0364,0.034,0.0329,0.0307,0.0291,0.0255,0.0282,0.0284,0.0285,0.0277,0.0222,0.0218,0.0263,0.0263,0.0263,0,0,0.0429,0.0427,0.0432,0.0427,0.0426,0.0424,0.0416,0.0418,0.0416,0.0392,0.0394,0.0371,0.0336,0.0318,0.0309,0.0304,0.0255,0.0285,0.0286,0.0276,0.0221,0.0217,0.0213,0.0263,0.0263,0.0263,0,0,0.0446,0.0449,0.0458,0.0454,0.0449,0.0438,0.0441,0.0434,0.0434,0.0423,0.0405,0.0381,0.0355,0.0326,0.0307,0.0301,0.0266,0.0298,0.0303,0.0251,0.0246,0.0242,0.0198,0.0189,0.0299,0.0299,0.0299,0,0.0454,0.0466,0.0459,0.0465,0.0465,0.0447,0.0453,0.0445,0.0434,0.0428,0.0428,0.0375,0.0353,0.0314,0.0314,0.0304,0.0272,0.0302,0.0253,0.0248,0.0243,0.0198,0.0188,0.0301,0.03,0.03,0.03,0,0.0474,0.0484,0.0492,0.0492,0.0487,0.0492,0.0477,0.0476,0.0469,0.0451,0.0423,0.0388,0.0353,0.0343,0.0327,0.0282,0.027,0.0263,0.025,0.024,0.0194,0.0183,0.0303,0.0302,0.0302,0.0301,0,0,0.0488,0.0502,0.0507,0.0514,0.0505,0.0504,0.0501,0.0484,0.0479,0.0455,0.0436,0.0392,0.037,0.0345,0.032,0.0275,0.0219,0.0259,0.0255,0.0218,0.0106,0.0109,0.0098,0.0205,0.0203,0.0201,0.0091,0,0.0506,0.0526,0.0526,0.0541,0.0548,0.0536,0.0532,0.0513,0.0491,0.0467,0.0418,0.039,0.0372,0.0357,0.0306,0.024,0.0191,0.025,0.0117,0.0113,0.012,0.0085,0.0196,0.0083,0.008,0.0078,0.0077,0,0.0523,0.0534,0.0558,0.0567,0.057,0.0577,0.0566,0.0562,0.0516,0.0498,0.045,0.0409,0.0342,0.033,0.02,0.024,0.0174,0.0121,0.0115,0.0095,0.0095,0.0091,0.0057,0.0058,0.006,0.0061,0.0062,0,0.0533,0.0556,0.0577,0.0583,0.0587,0.0602,0.0605,0.0575,0.0572,0.052,0.05,0.0409,0.0368,0.0269,0.0163,0.0178,0.0013,0.002,-0.0044,-0.0044,-0.0028,-0.0022,-0.0082,-0.0082,-0.0082,-0.0082,-0.0081,0,0.0543,0.0561,0.0593,0.0606,0.0634,0.063,0.0649,0.0635,0.0607,0.059,0.0524,0.0476,0.035,0.0245,0.015,0.0016,-0.0,-0.0059,-0.008,-0.0008,0.0,-0.0035,-0.0028,-0.0086,-0.0085,-0.0084,-0.0083,0,0.0539,0.0562,0.0594,0.0626,0.0644,0.0666,0.0698,0.0697,0.0675,0.0648,0.0635,0.0515,0.0375,0.0244,0.0069,0.0006,-0.0123,-0.0166,-0.0085,-0.0097,-0.0142,-0.0132,-0.0252,-0.0253,-0.0253,-0.0254,-0.0255,0,0.0534,0.0554,0.0617,0.0646,0.067,0.0711,0.0732,0.0734,0.0729,0.0665,0.064,0.0507,0.0417,0.0166,0.0031,-0.0159,-0.0175,-0.023,-0.0186,-0.0155,-0.0164,-0.0152,-0.0141,-0.0256,-0.0256,-0.0256,-0.0257,0,0.0522,0.0557,0.0582,0.0649,0.0695,0.074,0.0774,0.0772,0.0757,0.0744,0.0631,0.0502,0.0336,0.015,0.0003,-0.0129,-0.0188,-0.0239,-0.0238,-0.0197,-0.0162,-0.0167,-0.0155,-0.026,-0.0259,-0.0259,-0.0259,0,0.0514,0.0535,0.0584,0.0638,0.0699,0.0742,0.0767,0.0754,0.075,0.0687,0.0642,0.0472,0.0373,0.0162,0.0021,-0.0105,-0.0126,-0.0141,-0.0145,-0.0143,-0.007,-0.0007,-0.0091,0,0,0,0,0,0.0497,0.052,0.0567,0.0627,0.0686,0.0729,0.0771,0.0785,0.0778,0.0706,0.0679,0.0525,0.0301,0.0186,0.0058,0.0008,-0.0146,-0.0143,-0.0163,-0.0275,-0.0272,-0.0204,0,0,0,0,0,0,0.0484,0.0524,0.0552,0.0606,0.0647,0.071,0.0744,0.0744,0.0703,0.0677,0.0547,0.0507,0.0276,0.0368,0.0055,0.0016,-0.0009,-0.0245,-0.0247,-0.0277,-0.0274,-0.0272,-0.02,0,0,0,0,0]}]]